Location: Buenos Aires
(34.6076°S, 58.4371°W)
Time: 13:51:51
(UTC-03:00)

Envisat - Pass Details

Date: 25 June 2021
Orbit: 764 x 766 km, 98.2° (Epoch: 03 August)

Event Time Altitude Azimuth Distance (km) Brightness Sun altitude
Rises 06:42:14 0° 332° (NNW) 3,219 6.1 -15.8°
Reaches altitude 10° 06:45:23 10° 311° (NW) 2,304 5.2 -15.2°
Enters shadow 06:47:30 16° 287° (WNW) 1,951 4.6 -14.8°
